Regional Weather Roundup
Issued by NWS

Home | Current Version | Previous Version | Graphics & Text | Print | Product List | Glossary Off
Versions: 1 2 3 4 5 6 7 8 9 10 11 12 13 14 15 16 17 18 19 20 21 22 23 24 25 26 27 28 29 30 31 32 33 34 35 36 37 38 39 40 41 42 43 44 45 46 47 48 49 50

000
ASUS43 KMPX 181501
RWRMN
WEATHER ROUNDUP FOR MINNESOTA
NATIONAL WEATHER SERVICE TWIN CITIES/CHANHASSEN MN
1000 AM CDT THU SEP 18 2014


NOTE: "FAIR" INDICATES FEW OR NO CLOUDS BELOW 12,000 FEET WITH NO
SIGNIFICANT WEATHER AND/OR OBSTRUCTIONS TO VISIBILITY. N/A MEANS
CURRENT SKY AND/OR WEATHER CONDITIONS ARE NOT AVAILABLE.

MNZ060>063-068>070-181600-
   Twin Cities Metro

CITY           SKY/WX    TMP DP  RH WIND       PRES   REMARKS
TWIN CITIES    PTSUNNY   53  49  86 SE8       30.10S
ST PAUL        CLOUDY    52  50  93 SE6       30.12R
CRYSTAL        SUNNY     56  48  74 E7        30.09S
BLAINE         CLOUDY    52  52 100 E6        30.10S
LAKEVILLE      CLOUDY    54  54 100 E5        30.10S FOG
EDEN PRAIRIE     N/A    N/A N/A N/A MISG      30.09
SOUTH ST PAUL  CLOUDY    52  50  92 E5        30.11S
LAKE ELMO      CLOUDY    52  52 100 SE6       30.12S
$$
MNZ001>005-007-008-013>017-022>024-027-028-181600-
   Northwest Minnesota

CITY           SKY/WX    TMP DP  RH WIND       PRES   REMARKS
BEMIDJI        SUNNY     48  40  74 SE12      30.06F
HALLOCK        CLOUDY    48  46  93 SE10      29.98F
ROSEAU         CLOUDY    48  45  87 S10       30.02F HAZE
WARROAD        CLOUDY    46  43  87 SE9       30.04S FOG
THIEF RVR FALL CLOUDY    48  46  93 SE12      30.01S
CROOKSTON      CLOUDY    50  48  93 SE12      30.01S FOG
FOSSTON        CLOUDY    48  48 100 SE8       30.03S
DETROIT LAKES  CLOUDY    48  46  93 SE12      30.04F FOG
MOORHEAD       CLOUDY    55  55 100 S12       30.01S
PARK RAPIDS    CLOUDY    46  41  82 SE10      30.07S
MAHNOMEN       CLOUDY    50  47  90 SE10      30.02S
$$
MNZ006-009>011-018-025>026-181600-
   North Central Minnesota

CITY           SKY/WX    TMP DP  RH WIND       PRES   REMARKS
BAUDETTE       CLOUDY    44  43  96 SE9       30.07S FOG
FLAG ISLAND    CLOUDY    45  43  93 SE16G22   30.04S
INTL FALLS     CLOUDY    43  42  97 SE8       30.10F
WASKISH        CLOUDY    46  45  93 SE5       30.07S
BIG FORK       CLOUDY    46  41  81 S8        30.10F
LONGVILLE      CLOUDY    46  43  87 SE6       30.09S
GRAND RAPIDS   CLOUDY    45  37  76 SE8       30.11F
CRANE LAKE     CLOUDY    43  37  81 SE3       30.15S
ORR            PTSUNNY   45  36  70 SE9       30.10S
COOK           CLOUDY    45  39  81 SE7       30.13S
WALKER         PTSUNNY   45  39  81 SE8       30.08F
$$
MNZ012-019>021-037-181600-
   Northeast Minnesota

CITY           SKY/WX    TMP DP  RH WIND       PRES   REMARKS
DULUTH         PTSUNNY   45  38  76 E18       30.15R
ELY            CLOUDY    43  36  75 SE7       30.14S
HIBBING        SUNNY     48  38  68 SE9       30.12S
EVELETH        PTSUNNY   45  36  70 SE7       30.13S
DULUTH HARBOR  CLOUDY    48  41  76 CALM      30.18R
TWO HARBORS    CLOUDY    45  36  70 E8G17     30.16R
SILVER BAY     SUNNY     43  37  81 E10       30.16S
GRAND MARAIS     N/A     45  34  65 E5        30.21S
G MARAIS ARPRT CLOUDY    39  30  70 SE6       30.18S
$$
MNZ029>031-032-039>041-046>048-054>057-064-181600-
   West Central Minnesota

CITY           SKY/WX    TMP DP  RH WIND       PRES   REMARKS
FERGUS FALLS   CLOUDY    52  48  87 SE6       30.04S
WHEATON        CLOUDY    48  48 100 SE10      30.04S FOG
MORRIS         CLOUDY    52  50  93 SE13      30.03S FOG
ALEXANDRIA     FOG       48  48 100 E10       30.07S VSB 1/2
ELBOW LAKE     CLOUDY    50  49  96 SE10      30.03S
WADENA         CLOUDY    45  45 100 E8        30.06S
GLENWOOD       FOG       48  48 100 E10       30.06F VSB 1/4
APPLETON       FOG       54  52  94 E9        30.04R VSB 1/2
BENSON         CLOUDY    52  50  93 SE9       30.05S FOG
ORTONVILLE     FOG       52  52 100 SE8       30.03R VSB 1/4
MADISON        CLOUDY    57  55  94 SE8       30.03S FOG
WILLMAR        CLOUDY    52  50  93 SE10      30.08S FOG
$$
MNZ033>034-036-042>043-049>051-058-059-181600-
   Central Minnesota

CITY           SKY/WX    TMP DP  RH WIND       PRES   REMARKS
ST CLOUD       CLOUDY    50  47  89 E6        30.10R
SAUK CENTRE    CLOUDY    46  46  99 E7        30.08S FOG
PAYNESVILLE    CLOUDY    46  46 100 NE7       30.09R FOG
AITKIN         CLOUDY    46  41  81 SE5       30.10S
PINE RIVER     CLOUDY    43  39  87 E8        30.13S
BRAINERD       CLOUDY    45  43  93 SE7       30.11R
STAPLES        CLOUDY    45  43  93 SE6       30.08S
LONG PRAIRIE   FOG       43  43 100 E8        30.08S VSB 3/4
LITTLE FALLS   CLOUDY    45  43  93 E5        30.10R
LITCHFIELD     CLOUDY    52  52 100 E8        30.09S FOG
BUFFALO        CLOUDY    50  47  88 E5        30.11S
MAPLE LAKE     CLOUDY    51  49  95 E5        30.10S
$$
MNZ037-044-045-052-053-181600-
   East Central Minnesota

CITY           SKY/WX    TMP DP  RH WIND       PRES   REMARKS
PRINCETON      CLOUDY    48  46  93 E5        30.11S
MORA           FOG       45  45 100 E3        30.14R VSB 3/4
CAMBRIDGE      CLOUDY    52  45  76 E6        30.10S
RUSH CITY      CLOUDY    49  47  92 SE3       30.12S
MOOSE LAKE     CLOUDY    43  41  93 E5        30.13S
HINCKLEY       CLOUDY    45  45 100 E5        30.13S FOG
CLOQUET        CLOUDY    45  37  76 E9        30.14R
MCGREGOR       CLOUDY    45  41  87 SE8       30.13S
$$
MNZ071>073-080-081-089-090-097-098-181600-
   Southwest Minnesota

CITY           SKY/WX    TMP DP  RH WIND       PRES   REMARKS
MONTEVIDEO     CLOUDY    54  54 100 S8        30.05F FOG
GRANITE FALLS  CLOUDY    55  55 100 E6        30.06S FOG
CANBY          CLOUDY    55  55  99 SE6       30.04S
MARSHALL       MOSUNNY   59  52  77 SE10      30.03S
REDWOOD FALLS  PTSUNNY   57  53  86 E6        30.06S
OLIVIA         CLOUDY    54  52  94 E7        30.06R FOG
PIPESTONE      MOSUNNY   64  57  77 S9        30.03S
WINDOM         SUNNY     64  55  72 S7        30.06R
WORTHINGTON    SUNNY     64  55  72 S10       30.06S
JACKSON        SUNNY     63  55  77 S8        30.07S
TRACY          SUNNY     64  59  83 CALM      30.05R
SLAYTON        PTSUNNY   61  57  86 CALM      30.06R
$$
MNZ065>067-074>077-082>085-091>093-181600-
   South Central Minnesota

CITY           SKY/WX    TMP DP  RH WIND       PRES   REMARKS
MANKATO        SUNNY     61  52  72 SE6       30.08R
NEW ULM        SUNNY     59  55  88 SE5       30.06F
ST JAMES       SUNNY     63  55  77 SE5       30.07F
FAIRMONT       PTSUNNY   61  54  77 S9        30.08R
GLENCOE        CLOUDY    54  50  84 E7        30.08S
FARIBAULT      SUNNY     63  54  72 CALM      30.10R
OWATONNA       SUNNY     63  55  77 SE3       30.09S
WASECA         SUNNY     61  52  72 SE6       30.10S
ALBERT LEA     SUNNY     63  57  82 S7        30.10R
$$
MNZ078>079-086>088-094>096-181600-
   Southeast Minnesota

CITY           SKY/WX    TMP DP  RH WIND       PRES   REMARKS
ROCHESTER      SUNNY     60  54  80 SE7       30.13R
RED WING       CLOUDY    54  52  94 SE8       30.11S
STANTON        CLOUDY    56  55  94 CALM      30.09S
DODGE CENTER   SUNNY     61  55  82 S6        30.11R
WINONA         CLOUDY    54  54 100 SE6       30.15R FOG
AUSTIN         SUNNY     63  55  77 S5        30.11R
PRESTON        SUNNY     57  56  95 SE5       30.14R
$$
ABBREVIATIONS USED IN REMARKS
   TC - TEMPERATURES IN CELSIUS
  WCI - WIND CHILL INDEX
   HX - HEAT INDEX
  VSB - VISIBILITY
$$


USA.gov is the U.S. government's official web portal to all federal, state and local government web resources and services.